Printer-friendly version

IAU Minor Planet Center

Minor Planet Center

MPEC 2007-X24 : 2007 XT3

The following Minor Planet Electronic Circular may be linked-to from your own Web pages, but must not otherwise be redistributed electronically.


Read MPEC 2007-X23 Read MPEC 2007-X25


M.P.E.C. 2007-X24                                Issued 2007 Dec. 5, 23:18 UT

     The Minor Planet Electronic Circulars contain information on unusual
         minor planets and routine data on comets.  They are published
   on behalf of Commission 20 of the International Astronomical Union by the
          Minor Planet Center, Smithsonian Astrophysical Observatory,
                          Cambridge, MA 02138, U.S.A.

             Prepared using the Tamkin Foundation Computer Network

                              MPC@CFA.HARVARD.EDU
          URL http://www.cfa.harvard.edu/iau/mpc.html  ISSN 1523-6714

                                   2007 XT3

Observations:
     K07X03T* C2007 12 05.22939 03 50 34.98 +03 04 35.7          18.7 V EX024703
     K07X03T  C2007 12 05.23589 03 50 33.54 +03 05 03.0          19.3 V EX024703
     K07X03T  C2007 12 05.24243 03 50 31.92 +03 05 30.1          19.1 V EX024703
     K07X03T  C2007 12 05.24894 03 50 30.55 +03 05 58.5          19.3 V EX024703
     K07X03T  C2007 12 05.27837 03 50 23.92 +03 08 04.1          18.8 V EX024703
     K07X03T  C2007 12 05.29839 03 50 19.46 +03 09 30.1          19.1 V EX024703
     K07X03T  C2007 12 05.30839 03 50 17.26 +03 10 12.5          18.8 V EX024703
     K07X03T  C2007 12 05.40334 03 49 56.02 +03 17 00.3          18.7 V EX024703
     K07X03T  C2007 12 05.40423 03 49 55.88 +03 17 04.3          18.9 V EX024703
     K07X03T  C2007 12 05.40509 03 49 55.74 +03 17 08.9          18.7 V EX024703
     K07X03T  C2007 12 05.40598 03 49 55.56 +03 17 11.3          18.5 V EX024703
     K07X03T  C2007 12 05.87354 03 48 17.83 +03 51 21.5          18.5 V EX024104
     K07X03T  C2007 12 05.87535 03 48 17.44 +03 51 28.2          19.5 V EX024104
     K07X03T  C2007 12 05.87715 03 48 17.04 +03 51 35.9          19.8 V EX024104
     K07X03T  C2007 12 05.91444 03 48 08.34 +03 54 23.4          19.3 R EX024473
     K07X03T  C2007 12 05.92042 03 48 06.96 +03 54 50.0          19.4 R EX024473
     K07X03T  C2007 12 05.92640 03 48 05.57 +03 55 16.6          19.2 R EX024473

Observer details:
104 San Marcello Pistoiese.  Observers L. Tesi, G. Fagioli, M. Mazzucato,
    F. Dolfi.  Measurer L. Tesi.  0.60-m f/4 reflector + CCD.
473 Remanzacco.  Observers L. Donato, M. Gonano, V. Gonano, E. Guido,
    V. Santini, G. Sostero.  0.45-m f/4.4 Newtonian reflector + CCD.
703 Catalina Sky Survey.  Observer R. E. Hill.  Measurers E. C. Beshore,
    A. Boattini, G. J. Garradd, A. R. Gibbs, A. D. Grauer, R. E. Hill,
    R. A. Kowalski, S. M. Larson, R. H. McNaught.  0.68-m Schmidt + CCD.

Orbital elements:
2007 XT3                                                 Earth MOID = 0.1027 AU
Epoch 2007 Oct. 27.0 TT = JDT 2454400.5                 MPC
M 332.19800              (2000.0)            P               Q
n   0.29687988     Peri.   53.86463     -0.60388557     -0.71308780
a   2.2254382      Node    77.30272     +0.56215485     -0.69777977
e   0.5707050      Incl.   21.41107     +0.56507003     -0.06789098
P   3.32           H   21.1           G   0.15           U   9
Residuals in seconds of arc
071205 703  0.6+  0.9+    071205 703  0.2+  0.1+    071205 104  0.0   0.3-
071205 703  0.7+  0.4+    071205 703  1.2-  0.1+    071205 104  0.2+  0.7-
071205 703  1.6-  0.4-    071205 703  0.3-  0.3+    071205 473  0.2-  0.7+
071205 703  0.3-  0.3+    071205 703  0.4+  1.2+    071205 473  0.2-  0.5+
071205 703  0.9-  0.2+    071205 703  0.7+  0.2-    071205 473  0.4-  0.2+
071205 703  0.4-  0.5+    071205 104  0.4-  1.1+

Ephemeris:
2007 XT3                 a,e,i = 2.23, 0.57, 21                  q = 0.9554
Date    TT    R. A. (2000) Decl.     Delta      r     Elong.  Phase     V
2007 12 06    03 47.83   +04 01.2    0.206    1.178   156.6    19.4    19.0
2007 12 16    02 56.83   +21 59.5    0.151    1.111   144.3    31.1    18.6
2007 12 26    01 14.22   +47 33.2    0.137    1.052   116.6    56.7    18.9
2008 01 05    22 18.16   +61 03.8    0.166    1.005    92.7    77.8    19.9
2008 01 15    19 59.49   +59 20.8    0.216    0.972    80.7    86.6    20.8
2008 01 25    18 52.36   +54 16.8    0.272    0.957    76.2    87.8    21.3
2008 02 04    18 18.77   +49 29.3    0.324    0.959    75.8    85.1    21.5
2008 02 14    17 59.70   +45 24.5    0.371    0.980    78.0    80.3    21.7
2008 02 24    17 46.75   +41 58.5    0.408    1.016    82.0    74.6    21.8
2008 03 05    17 35.32   +39 04.6    0.435    1.067    87.7    68.3    21.8
2008 03 15    17 22.10   +36 30.7    0.453    1.128    94.9    61.4    21.8
2008 03 25    17 05.00   +33 57.0    0.465    1.197   103.8    54.0    21.8
2008 04 04    16 43.09   +31 00.9    0.476    1.271   114.1    45.9    21.8
2008 04 14    16 17.01   +27 19.0    0.491    1.348   125.4    37.3    21.7
2008 04 24    15 49.40   +22 40.9    0.519    1.427   136.5    29.0    21.7
2008 05 04    15 23.66   +17 20.8    0.565    1.508   145.4    22.3    21.8

Sonia Keys                   (C) Copyright 2007 MPC           M.P.E.C. 2007-X24

Read MPEC 2007-X23 Read MPEC 2007-X25


Our Web policy. Index to the CBAT/MPC/ICQ pages.


Valid HTML 4.01!